Simultaneous Nadir Overpasses (SNOs) Predictions

Prediction of SNOs between NOAA-19 and METOP-C Satellite Orbit:

Table of predicted SNOs for the next 14.0 days since TLE Epoch: 7/19/2019
Index Date (NOAA-19) Time (NOAA-19) Lat,Lon (NOAA-19) SZA (NOAA-19 ) Date (METOP-C) Time (METOP-C) Lat,Lon (METOP-C) SZA (METOP-C ) Distance(km) Time Diff (sec)
1 07/23/2019 14:17:44 -79.37, 162.12 120.35 07/23/2019 14:18:49 -79.35, 162.07 120.36 2.77 65
2 07/23/2019 15:08:43 79.37, -30.57 59.66 07/23/2019 15:09:30 79.35, -30.61 59.65 2.26 47
3 07/23/2019 15:59:44 -79.35, 136.83 120.34 07/23/2019 16:00:10 -79.37, 136.89 120.32 2.52 26
4 07/23/2019 16:50:43 79.34, -55.85 59.67 07/23/2019 16:50:51 79.37, -55.79 59.69 3.05 8
5 07/23/2019 17:41:45 -79.36, 111.28 120.33 07/23/2019 17:41:32 -79.36, 111.44 120.32 3.43 13
6 07/23/2019 18:32:44 79.35, -81.40 59.68 07/23/2019 18:32:13 79.36, -81.24 59.69 3.38 31
7 07/23/2019 19:23:45 -79.33, 85.99 120.32 07/23/2019 19:22:54 -79.34, 86.00 120.32 1.10 51
8 07/23/2019 20:14:44 79.33,-106.68 59.69 07/23/2019 20:13:35 79.34,-106.69 59.69 1.80 69




NCC Satellite Simultaneous Nadir Overpasses (SNOs) Prediction Service
